DMSP 5D-2 F13 DEB

Satellite information

Favourite Embed

Satellite Type and Status

DEBRISDECAYED

Key statistics

Satellite DMSP 5D-2 F13 DEB at a glance.

Uptime

11143

Days in orbit

Revolutions

≈ 15.5

Per day

Orbit

SSO

Sun Synchronous Orbit

Inclination

98.7

Latest

Satellite identification and parameters

Extended collection of information and parameters for DMSP 5D-2 F13 DEB.

Object identification

Identified? True

Debris? True

Object name: DMSP 5D-2 F13 DEB

International designator: 1995-015JU

Object number (NORAD): 42326

Object ID (CCSDS): 42326

Country: UNITED STATES OF AMERICA (US)

Current information (Y/N): Y

RCS size: SMALL

Orbital parameters

Decay date: Sept. 25, 2025

Period: 92.813 minutes

Inclination: 98.7497 deg

SMA: 6790.466 km

Apoapsis: 425.944 km

Periapsis: 398.718 km

RAAN: 2.3325 deg

Eccentricy: 0.0020047

Argument of periapsis: 275.4061 deg

Mean anomaly: 84.49 deg

Mean motion: 15.51505669 rev/day

Mean motion (dot): 0.01541361 rev/day2

B* drag term: 0.023458 1/REarth

Two-line elements (TLE)

Creation date: Sept. 29, 2025, 11:26 p.m.

Reference frame: TEME

Reference center: EARTH

Epoch: Sept. 20, 2025, 5:45 a.m. UTC

TLE line 0: 0 DMSP 5D-2 F13 DEB

TLE line 1: 1 42326U 95015JU 25263.24011796 .01541361 00000-0 23458-1 0 9999

TLE line 2: 2 42326 98.7497 2.3325 0020047 275.4061 84.4900 15.51505669519649

Live tracking on map

Satellite DMSP 5D-2 F13 DEB has decayed and is no longer in orbit. No tracking available.

In-orbit conjunctions

Satellite DMSP 5D-2 F13 DEB has decayed and is no longer in orbit. No conjunctions available.

Associated space launch

Military meteorological satellite

DMSP 5D-2 F13 DEB was lifted into orbit during the mission ‘Atlas E | DMSP-5D2 F13’, on board a Atlas E space rocket.

The launch took place on March 24, 1995, 2:05 p.m. from Space Launch Complex 3W.

For more information about the launch, click the button.

Launch to space Atlas E | DMSP-5D2 F13
Atlas E | DMSP-5D2 F13

Agency: N/A

Status: Launch Successful

Launch date: March 24, 1995, 2:05 p.m. UTC

Rocket: Atlas E

Launch pad: Space Launch Complex 3W

Location: Vandenberg SFB, CA, USA

...

Latest news about this satellite

There are no fresh news available about this satellite. Check back as we update our databases every day.


Newsletter sign-up

Weekly statistics, charts and insights to help you stay on top of the space industry.